This is the latest recevied weather packets stored in our database for station/object WI5ARD. If no packets are shown the sender has not sent any weather packets the latest 10 day(s).
| Time | Temp. | Humidity | Pressure | Rain* | Wind** | Luminosity | Snow |
|---|---|---|---|---|---|---|---|
| 1777441820 | 22.22° C | 92% | 1016.9 hPa | 0 mm | - | 0 W/m² | - |
| 1777439121 | 22.78° C | 92% | 1017.3 hPa | 0 mm | - | 0 W/m² | - |
| 1777435821 | 22.78° C | 90% | 1016.8 hPa | 0 mm | - | 0 W/m² | - |
| 1777434922 | 23.33° C | 90% | 1016.7 hPa | 0 mm | - | 0 W/m² | - |
| 1777434619 | 23.33° C | 89% | 1016.6 hPa | 0 mm | - | 0 W/m² | - |
| 1777434022 | 23.33° C | 89% | 1016.6 hPa | 0 mm | - | 0 W/m² | - |
| 1777432532 | 23.33° C | 88% | 1016.6 hPa | 0 mm | - | 0 W/m² | - |
| 1777432220 | 23.33° C | 88% | 1016.7 hPa | 0 mm | - | 0 W/m² | - |
| 1777431920 | 23.33° C | 88% | 1016.7 hPa | 0 mm | - | 0 W/m² | - |
| 1777431019 | 23.33° C | 88% | 1016.6 hPa | 0 mm | - | 0 W/m² | - |
| 1777430736 | 23.33° C | 87% | 1016.6 hPa | 0 mm | - | 0 W/m² | - |
| 1777429835 | 23.89° C | 87% | 1016.8 hPa | 0 mm | - | 0 W/m² | - |
| 1777429520 | 23.89° C | 86% | 1016.8 hPa | 0 mm | - | 0 W/m² | - |
| 1777428035 | 23.89° C | 85% | 1016.7 hPa | 0 mm | - | 0 W/m² | - |
| 1777426821 | 23.89° C | 84% | 1016.8 hPa | 0 mm | - | 0 W/m² | - |
| 1777421737 | 26.11° C | 79% | 1016.8 hPa | 0 mm | - | 14 W/m² | - |
| 1777419621 | 26.67° C | 77% | 1016.5 hPa | 0 mm | - | 62 W/m² | - |
| 1777418720 | 26.67° C | 76% | 1016.2 hPa | 0 mm | - | 88 W/m² | - |
| 1777418137 | 27.22° C | 75% | 1016.4 hPa | 0 mm | - | 114 W/m² | - |
| 1777417819 | 27.22° C | 74% | 1016.4 hPa | 0 mm | - | 114 W/m² | - |
| 1777416622 | 27.22° C | 73% | 1016.1 hPa | 0 mm | - | 125 W/m² | - |
| 1777413319 | 28.33° C | 71% | 1016.1 hPa | 0 mm | - | 250 W/m² | - |
| 1777413018 | 28.33° C | 71% | 1016.2 hPa | 0 mm | - | 202 W/m² | - |
| 1777412740 | 28.33° C | 71% | 1016.3 hPa | 0 mm | - | 135 W/m² | - |
| 1777409420 | 28.89° C | 70% | 1016.5 hPa | 0 mm | - | 271 W/m² | - |
* Rain latest hour (hover to see other rain measurements)
** Current wind speed in m/s (hover to see current wind gust speed)